Location: Unspecified
(0.0000°N, 0.0000°E)
Time: 06:01:12
(UTC+02:00)

OPAL - Visible Passes

Search period start: 18 October 2017 00:00
Search period end: 28 October 2017 00:00
Orbit: 744 x 795 km, 100.2° (Epoch: 17 October)

Date Brightness Start Highest point End Pass type
(mag) Time Alt. Az. Time Alt. Az. Time Alt. Az.
18 Oct 8.8 20:21:57 10° ESE 20:25:02 16° ENE 20:28:05 10° NE visible
18 Oct 9.3 21:59:24 10° SSW 22:03:37 28° WSW 22:07:51 10° NW visible
19 Oct 7.4 21:23:15 10° SSE 21:28:13 82° WSW 21:33:13 10° NNW visible
20 Oct 8.0 20:48:21 10° SE 20:52:50 34° ENE 20:57:21 10° N visible
20 Oct 10.3 22:29:08 10° SW 22:31:26 13° WSW 22:33:44 10° WNW visible
21 Oct 9.1 20:15:34 10° E 20:17:29 12° ENE 20:19:24 10° NE visible
21 Oct 8.8 21:51:30 10° S 21:56:04 37° WSW 22:00:40 10° NW visible
22 Oct 7.3 21:15:42 10° SSE 21:20:40 75° ENE 21:25:41 10° N visible
23 Oct 8.3 20:41:10 10° SE 20:45:18 26° ENE 20:49:26 10° NNE visible
23 Oct 10.0 22:20:35 10° SSW 22:23:53 18° WSW 22:27:13 10° WNW visible
24 Oct 8.2 21:43:42 10° S 21:48:31 50° WSW 21:53:22 10° NNW visible
25 Oct 7.4 21:08:14 10° SSE 21:13:07 56° ENE 21:18:02 10° N visible
26 Oct 8.6 20:34:10 10° ESE 20:37:46 20° ENE 20:41:22 10° NNE visible
26 Oct 9.6 22:12:23 10° SSW 22:16:21 24° WSW 22:20:20 10° NW visible
27 Oct 7.7 21:36:00 10° S 21:40:57 68° WSW 21:45:59 10° NNW visible
